Airfield :
LOGIN :

Register | Disclaimer

   EN    FR    IT 

 










Legend :    VFR   Marginal VFR   IFR   Intensive IFR   Very Intensive IFR
Visi :
Ceiling :
>= 8 km
>= 3000ft
5 to 8 km
1000 to 3000 ft
1500m to 5 km
500 to 1000 ft
800 to 1500m
200 to 500 ft
< 800m
< 200 ft
Symbols :   Thunderstorms  Fog  Heavy snow  Heavy precipitations  Wind > 20 kt
SIGMETs :     Misc.  Thunderstorms  Icing  Turbulence  Mountain Waves  Volcanic Ashes







- Airport Elevation : 464 ft
- IATA code : EVX
- Download approach charts


LFOE - Evreux

CURRENT METAR :
  • 230500Z AUTO 02002KT CAVOK 01/00 Q1027

EXPIRED METARs :
  • 230430Z AUTO VRB03KT CAVOK 02/00 Q1027
  • 230400Z AUTO 11003KT CAVOK 03/01 Q1026
  • 230330Z AUTO 06004KT CAVOK 03/01 Q1026
  • 230300Z AUTO 05004KT CAVOK 04/01 Q1026
  • 230230Z AUTO 06002KT CAVOK 05/02 Q1027

TAF TAF LFOE
Valid from the 22 at 21:00 until the 23 at 21:00 UTC


222000Z 2221/2321 06005KT CAVOK
No reported NOTAMs for that airfield.



MET'MAP, your aeronautical weather chart ! - Copyright ORBIFLY December 2007 - Disclaimer

ORBIFLY MET'MAP TEAM :

Programming & Development : Alexandra Zaïnal
Concept & Development : Baudouin d'Aumeries
Co-Development & Prog : Marc-Olivier Méhu
Technical & hardware support : Manuel Goepfert

Contact : metmap@orbifly.com




SOURCES & CREDITS :

   NOAA